| time (UTC) | temp F | wind direction | speed MPH | gust MPH | rain 1hr in | rain 24hr in | rain mn in | humidity % | barometer mb |
| 20260507132750 | 51 | 264 | 3.0 | 7.0 | 0.00 | 0.15 | 0.33 | 91 | 1011.3 |
| 20260507132251 | 51 | 262 | 3.0 | 7.0 | 0.00 | 0.15 | 0.33 | 92 | 1011.4 |
| 20260507131750 | 50 | 262 | 3.0 | 7.0 | 0.00 | 0.15 | 0.33 | 93 | 1011.2 |
| 20260507131252 | 50 | 244 | 2.0 | 7.0 | 0.00 | 0.15 | 0.33 | 94 | 1011.3 |
| 20260507130740 | 50 | 315 | 3.0 | 7.0 | 0.00 | 0.15 | 0.33 | 94 | 1011.3 |
| 20260507130502 | 50 | 203 | 2.0 | 5.0 | 0.00 | 0.15 | 0.33 | 94 | 1011.1 |
| 20260507130002 | 49 | 70 | 2.0 | 5.0 | 0.00 | 0.15 | 0.33 | 94 | 1011.2 |
| 20260507125238 | 49 | 267 | 2.0 | 5.0 | 0.00 | 0.15 | 0.33 | 94 | 1011.2 |
| 20260507124738 | 49 | 262 | 2.0 | 5.0 | 0.00 | 0.15 | 0.33 | 94 | 1011.2 |
| 20260507124222 | 49 | 89 | 2.0 | 5.0 | 0.00 | 0.15 | 0.33 | 94 | 1011.2 |
| 20260507123722 | 49 | 342 | 2.0 | 4.0 | 0.00 | 0.15 | 0.33 | 94 | 1011.3 |
| 20260507123222 | 49 | 248 | 2.0 | 4.0 | 0.00 | 0.15 | 0.33 | 94 | 1011.1 |
| 20260507122940 | 49 | 271 | 2.0 | 4.0 | 0.00 | 0.15 | 0.33 | 94 | 1011.2 |
| 20260507122223 | 49 | 257 | 1.0 | 3.0 | 0.00 | 0.15 | 0.33 | 94 | 1011.1 |
| 20260507121723 | 49 | 208 | 1.0 | 4.0 | 0.00 | 0.15 | 0.33 | 94 | 1011.3 |
| 20260507121223 | 49 | 0 | 2.0 | 4.0 | 0.00 | 0.15 | 0.33 | 94 | 1011.4 |
| 20260507120943 | 49 | 271 | 2.0 | 5.0 | 0.00 | 0.15 | 0.33 | 94 | 1011.5 |
| 20260507120444 | 49 | 260 | 2.0 | 5.0 | 0.00 | 0.15 | 0.33 | 94 | 1011.5 |
| 20260507115723 | 49 | 265 | 2.0 | 3.0 | 0.02 | 0.15 | 0.33 | 94 | 1011.2 |
| 20260507115223 | 49 | 270 | 2.0 | 3.0 | 0.04 | 0.15 | 0.33 | 94 | 1010.9 |
| 20260507114723 | 49 | 263 | 2.0 | 5.0 | 0.05 | 0.15 | 0.33 | 94 | 1011.0 |
| 20260507114223 | 49 | 253 | 2.0 | 5.0 | 0.06 | 0.15 | 0.33 | 94 | 1011.0 |
| 20260507113708 | 49 | 257 | 2.0 | 5.0 | 0.06 | 0.15 | 0.33 | 94 | 1011.1 |
| 20260507113208 | 49 | 0 | 1.0 | 2.0 | 0.08 | 0.15 | 0.33 | 94 | 1010.9 |
| 20260507112708 | 49 | 285 | 2.0 | 3.0 | 0.08 | 0.15 | 0.33 | 94 | 1010.9 |
| 20260507112153 | 49 | 255 | 2.0 | 3.0 | 0.09 | 0.15 | 0.33 | 94 | 1011.1 |
| 20260507111653 | 49 | 212 | 2.0 | 4.0 | 0.09 | 0.15 | 0.33 | 94 | 1011.1 |
| 20260507111154 | 49 | 236 | 2.0 | 4.0 | 0.12 | 0.15 | 0.33 | 94 | 1011.1 |
| 20260507110654 | 49 | 268 | 2.0 | 3.0 | 0.13 | 0.15 | 0.33 | 94 | 1010.9 |
| 20260507110644 | 49 | 256 | 2.0 | 3.0 | 0.13 | 0.15 | 0.33 | 94 | 1010.8 |
| 20260507105652 | 49 | 255 | 2.0 | 3.0 | 0.11 | 0.12 | 0.31 | 94 | 1011.0 |
| 20260507105153 | 49 | 240 | 2.0 | 3.0 | 0.09 | 0.10 | 0.29 | 94 | 1010.9 |
| 20260507104653 | 49 | 262 | 1.0 | 3.0 | 0.08 | 0.09 | 0.28 | 94 | 1010.8 |
| 20260507104140 | 49 | 255 | 1.0 | 2.0 | 0.07 | 0.09 | 0.28 | 93 | 1010.6 |
| 20260507103639 | 49 | 0 | 0.0 | 2.0 | 0.07 | 0.08 | 0.27 | 93 | 1010.5 |
| 20260507103139 | 49 | 0 | 0.0 | 0.0 | 0.06 | 0.06 | 0.25 | 93 | 1010.5 |
| 20260507102640 | 48 | 0 | 0.0 | 1.0 | 0.06 | 0.06 | 0.25 | 93 | 1010.5 |
| 20260507102125 | 49 | 0 | 0.0 | 2.0 | 0.06 | 0.06 | 0.25 | 93 | 1010.6 |
| 20260507101625 | 49 | 135 | 0.0 | 2.0 | 0.04 | 0.05 | 0.24 | 93 | 1010.8 |
| 20260507101125 | 49 | 128 | 0.0 | 2.0 | 0.02 | 0.02 | 0.21 | 93 | 1010.7 |
| 20260507100842 | 49 | 0 | 1.0 | 2.0 | 0.02 | 0.02 | 0.20 | 93 | 1010.7 |
| 20260507100125 | 49 | 0 | 1.0 | 2.0 | 0.02 | 0.02 | 0.20 | 93 | 1010.7 |
| 20260507095625 | 49 | 143 | 1.0 | 2.0 | 0.02 | 0.02 | 0.20 | 93 | 1010.6 |
| 20260507095607 | 49 | 89 | 1.0 | 3.0 | 0.02 | 0.02 | 0.20 | 93 | 1010.6 |
| 20260507094852 | 49 | 264 | 1.0 | 3.0 | 0.02 | 0.02 | 0.20 | 93 | 1010.7 |
| 20260507094110 | 49 | 41 | 2.0 | 4.0 | 0.01 | 0.01 | 0.20 | 93 | 1010.5 |
| 20260507093611 | 49 | 26 | 2.0 | 4.0 | 0.01 | 0.01 | 0.20 | 93 | 1010.6 |
| 20260507093111 | 49 | 94 | 1.0 | 2.0 | 0.00 | 0.00 | 0.19 | 93 | 1010.2 |
| 20260507092612 | 49 | 203 | 1.0 | 2.0 | 0.00 | 0.00 | 0.19 | 93 | 1010.2 |
| 20260507092336 | 49 | 236 | 1.0 | 4.0 | 0.00 | 0.00 | 0.19 | 93 | 1010.4 |
| 20260507091829 | 49 | 185 | 1.0 | 4.0 | 0.00 | 0.00 | 0.19 | 93 | 1010.3 |
| 20260507091600 | 49 | 73 | 1.0 | 2.0 | 0.00 | 0.00 | 0.19 | 92 | 1010.2 |
| 20260507090613 | 49 | 88 | 1.0 | 3.0 | 0.00 | 0.00 | 0.19 | 92 | 1010.1 |
| 20260507090112 | 49 | 227 | 1.0 | 5.0 | 0.00 | 0.00 | 0.19 | 92 | 1010.2 |
| 20260507085558 | 0 | 0.0 | 0.0 | 0.00 | 0.00 | 0.19 | |||
| 20260507084241 | 49 | 80 | 1.0 | 3.0 | 0.11 | 0.25 | 0.19 | 92 | 1010.0 |
| 20260507083742 | 49 | 122 | 1.0 | 3.0 | 0.11 | 0.24 | 0.18 | 92 | 1010.0 |
| 20260507083243 | 50 | 141 | 1.0 | 3.0 | 0.12 | 0.24 | 0.18 | 92 | 1010.1 |
| 20260507082742 | 50 | 264 | 1.0 | 3.0 | 0.15 | 0.23 | 0.17 | 92 | 1010.1 |
| 20260507082243 | 50 | 258 | 1.0 | 2.0 | 0.16 | 0.23 | 0.17 | 92 | 1010.1 |
| 20260507081742 | 50 | 200 | 1.0 | 3.0 | 0.17 | 0.22 | 0.17 | 92 | 1010.1 |
| 20260507081512 | 50 | 272 | 1.0 | 3.0 | 0.16 | 0.22 | 0.16 | 92 | 1010.0 |
| 20260507080742 | 51 | 175 | 1.0 | 3.0 | 0.16 | 0.22 | 0.16 | 92 | 1010.0 |
| 20260507080244 | 51 | 81 | 2.0 | 5.0 | 0.15 | 0.21 | 0.15 | 91 | 1009.9 |
| 20260507075743 | 51 | 243 | 2.0 | 5.0 | 0.12 | 0.18 | 0.12 | 91 | 1010.5 |
| 20260507075719 | 51 | 55 | 3.0 | 6.0 | 0.09 | 0.15 | 0.09 | 91 | 1010.6 |
| 20260507074733 | 52 | 254 | 3.0 | 6.0 | 0.09 | 0.15 | 0.09 | 91 | 1010.5 |
| 20260507074228 | 52 | 302 | 2.0 | 7.0 | 0.08 | 0.14 | 0.09 | 90 | 1010.3 |
| 20260507073728 | 53 | 296 | 2.0 | 7.0 | 0.07 | 0.13 | 0.07 | 89 | 1010.3 |
| 20260507073228 | 53 | 209 | 2.0 | 5.0 | 0.06 | 0.11 | 0.06 | 88 | 1010.5 |
| 20260507072728 | 53 | 151 | 2.0 | 5.0 | 0.02 | 0.08 | 0.02 | 87 | 1010.5 |
| 20260507072227 | 54 | 262 | 2.0 | 5.0 | 0.01 | 0.07 | 0.01 | 87 | 1009.9 |
| 20260507071729 | 54 | 257 | 2.0 | 5.0 | 0.00 | 0.06 | 0.00 | 87 | 1009.6 |
| 20260507071228 | 54 | 121 | 1.0 | 3.0 | 0.00 | 0.06 | 0.00 | 89 | 1009.1 |
| 20260507070728 | 54 | 88 | 1.0 | 2.0 | 0.00 | 0.06 | 0.00 | 90 | 1009.1 |
| 20260507070228 | 54 | 227 | 1.0 | 2.0 | 0.00 | 0.06 | 0.00 | 90 | 1009.1 |
| 20260507065953 | 55 | 155 | 1.0 | 2.0 | 0.00 | 0.06 | 0.00 | 91 | 1009.0 |
| 20260507065228 | 55 | 350 | 1.0 | 2.0 | 0.00 | 0.06 | 0.00 | 91 | 1009.0 |
| 20260507064728 | 55 | 0 | 1.0 | 3.0 | 0.00 | 0.06 | 0.00 | 91 | 1009.0 |
| 20260507064227 | 56 | 59 | 1.0 | 3.0 | 0.00 | 0.06 | 0.00 | 91 | 1009.2 |
| 20260507063729 | 56 | 0 | 1.0 | 4.0 | 0.00 | 0.06 | 0.00 | 91 | 1009.3 |
| 20260507063450 | 56 | 305 | 1.0 | 4.0 | 0.00 | 0.06 | 0.00 | 91 | 1009.3 |
| 20260507062715 | 56 | 235 | 1.0 | 5.0 | 0.00 | 0.06 | 0.00 | 91 | 1009.2 |
| 20260507062159 | 56 | 356 | 1.0 | 5.0 | 0.00 | 0.06 | 0.00 | 91 | 1009.2 |
| 20260507061922 | 57 | 237 | 1.0 | 3.0 | 0.00 | 0.06 | 0.00 | 92 | 1009.2 |
| 20260507061159 | 57 | 260 | 1.0 | 3.0 | 0.00 | 0.06 | 0.00 | 92 | 1009.1 |
| 20260507060700 | 57 | 191 | 0.0 | 2.0 | 0.00 | 0.06 | 0.00 | 92 | 1009.2 |
| 20260507060200 | 57 | 197 | 1.0 | 2.0 | 0.00 | 0.06 | 0.00 | 92 | 1009.2 |
| 20260507055701 | 57 | 262 | 1.0 | 3.0 | 0.00 | 0.06 | 0.00 | 92 | 1009.2 |
| 20260507055157 | 57 | 243 | 2.0 | 4.0 | 0.00 | 0.06 | 0.00 | 92 | 1009.3 |
| 20260507054659 | 57 | 195 | 2.0 | 4.0 | 0.00 | 0.06 | 0.00 | 92 | 1009.4 |
| 20260507054420 | 57 | 51 | 2.0 | 3.0 | 0.00 | 0.06 | 0.00 | 92 | 1009.4 |
| 20260507053644 | 58 | 116 | 2.0 | 4.0 | 0.00 | 0.06 | 0.00 | 92 | 1009.5 |
| 20260507053131 | 58 | 225 | 2.0 | 4.0 | 0.00 | 0.06 | 0.00 | 92 | 1009.6 |
| 20260507052629 | 58 | 254 | 2.0 | 4.0 | 0.00 | 0.06 | 0.00 | 92 | 1009.6 |
| 20260507052115 | 58 | 251 | 2.0 | 4.0 | 0.00 | 0.06 | 0.00 | 92 | 1009.6 |
| 20260507051615 | 58 | 218 | 2.0 | 4.0 | 0.00 | 0.06 | 0.00 | 92 | 1009.6 |
| 20260507051337 | 58 | 250 | 1.0 | 4.0 | 0.00 | 0.06 | 0.00 | 92 | 1009.7 |
| 20260507050615 | 58 | 232 | 1.0 | 2.0 | 0.00 | 0.06 | 0.00 | 92 | 1009.6 |
| 20260507050338 | 58 | 0 | 1.0 | 2.0 | 0.00 | 0.06 | 0.00 | 93 | 1009.7 |
| 20260507045615 | 58 | 254 | 2.0 | 4.0 | 0.00 | 0.06 | 0.00 | 93 | 1009.8 |
| 20260507045116 | 58 | 219 | 2.0 | 4.0 | 0.00 | 0.06 | 0.00 | 93 | 1009.7 |
| 20260507044616 | 58 | 270 | 1.0 | 4.0 | 0.00 | 0.06 | 0.00 | 93 | 1009.7 |
| 20260507044116 | 58 | 289 | 1.0 | 3.0 | 0.00 | 0.06 | 0.00 | 93 | 1009.7 |
| 20260507043820 | 58 | 251 | 2.0 | 3.0 | 0.00 | 0.06 | 0.00 | 94 | 1009.6 |
| 20260507043100 | 58 | 265 | 2.0 | 3.0 | 0.00 | 0.06 | 0.00 | 94 | 1009.7 |
| 20260507042600 | 59 | 282 | 2.0 | 4.0 | 0.00 | 0.06 | 0.00 | 94 | 1009.7 |
| 20260507042100 | 59 | 257 | 2.0 | 4.0 | 0.00 | 0.06 | 0.00 | 94 | 1009.7 |
| 20260507041601 | 59 | 289 | 2.0 | 4.0 | 0.00 | 0.06 | 0.00 | 94 | 1009.6 |
| 20260507041101 | 59 | 243 | 2.0 | 6.0 | 0.00 | 0.06 | 0.00 | 94 | 1009.4 |
| 20260507040601 | 59 | 194 | 2.0 | 6.0 | 0.00 | 0.06 | 0.00 | 94 | 1009.5 |
| 20260507035601 | 58 | 190 | 3.0 | 5.0 | 0.00 | 0.06 | 0.06 | 94 | 1009.6 |
| 20260507035534 | 58 | 238 | 3.0 | 5.0 | 0.00 | 0.06 | 0.06 | 94 | 1009.5 |
| 20260507034819 | 58 | 262 | 2.0 | 4.0 | 0.00 | 0.06 | 0.06 | 94 | 1009.5 |
| 20260507034306 | 58 | 260 | 3.0 | 5.0 | 0.00 | 0.06 | 0.06 | 94 | 1009.4 |
| 20260507033531 | 58 | 193 | 2.0 | 5.0 | 0.00 | 0.06 | 0.06 | 94 | 1009.5 |
| 20260507033031 | 58 | 170 | 2.0 | 5.0 | 0.00 | 0.06 | 0.06 | 94 | 1009.6 |
| 20260507032532 | 58 | 169 | 2.0 | 5.0 | 0.00 | 0.06 | 0.06 | 94 | 1009.8 |
| 20260507032032 | 58 | 183 | 2.0 | 5.0 | 0.00 | 0.06 | 0.06 | 95 | 1009.8 |
| 20260507031756 | 58 | 243 | 2.0 | 6.0 | 0.00 | 0.06 | 0.06 | 95 | 1009.7 |
| 20260507031020 | 58 | 246 | 2.0 | 6.0 | 0.00 | 0.06 | 0.06 | 94 | 1009.6 |
| 20260507030517 | 58 | 278 | 3.0 | 6.0 | 0.00 | 0.06 | 0.06 | 94 | 1009.5 |
| 20260507030009 | 58 | 218 | 3.0 | 7.0 | 0.00 | 0.06 | 0.06 | 94 | 1009.6 |
| 20260507025508 | 58 | 225 | 3.0 | 7.0 | 0.00 | 0.06 | 0.06 | 94 | 1009.5 |
| 20260507025001 | 58 | 198 | 3.0 | 7.0 | 0.00 | 0.06 | 0.06 | 94 | 1009.5 |
| 20260507024502 | 58 | 161 | 3.0 | 6.0 | 0.00 | 0.06 | 0.06 | 94 | 1009.5 |
| 20260507024000 | 58 | 223 | 3.0 | 6.0 | 0.00 | 0.06 | 0.06 | 94 | 1009.5 |
| 20260507023500 | 58 | 239 | 3.0 | 6.0 | 0.00 | 0.06 | 0.06 | 94 | 1009.4 |
| 20260507023000 | 57 | 191 | 2.0 | 6.0 | 0.00 | 0.06 | 0.06 | 94 | 1009.5 |
| 20260507022501 | 57 | 240 | 3.0 | 6.0 | 0.00 | 0.06 | 0.06 | 94 | 1009.5 |
| 20260507022001 | 57 | 251 | 3.0 | 6.0 | 0.00 | 0.06 | 0.06 | 94 | 1009.5 |
| 20260507021501 | 57 | 236 | 3.0 | 6.0 | 0.00 | 0.06 | 0.06 | 94 | 1009.5 |
| 20260507021001 | 57 | 196 | 2.0 | 6.0 | 0.00 | 0.06 | 0.06 | 94 | 1009.5 |
| 20260507020501 | 57 | 234 | 2.0 | 6.0 | 0.00 | 0.06 | 0.06 | 94 | 1009.5 |
| 20260507020001 | 57 | 177 | 2.0 | 5.0 | 0.00 | 0.06 | 0.06 | 94 | 1009.5 |
| 20260507015502 | 57 | 128 | 2.0 | 6.0 | 0.00 | 0.06 | 0.06 | 94 | 1009.5 |
| 20260507015231 | 57 | 228 | 2.0 | 6.0 | 0.00 | 0.06 | 0.06 | 94 | 1009.5 |
| 20260507014501 | 57 | 235 | 2.0 | 6.0 | 0.00 | 0.06 | 0.06 | 94 | 1009.5 |
| 20260507013957 | 57 | 194 | 3.0 | 6.0 | 0.00 | 0.06 | 0.06 | 94 | 1009.5 |
| 20260507013943 | 57 | 163 | 3.0 | 6.0 | 0.00 | 0.06 | 0.06 | 94 | 1009.6 |
| 20260507012957 | 57 | 196 | 3.0 | 8.0 | 0.00 | 0.06 | 0.06 | 94 | 1009.6 |
| 20260507012452 | 57 | 190 | 3.0 | 8.0 | 0.00 | 0.06 | 0.06 | 94 | 1009.6 |
| 20260507012214 | 57 | 229 | 3.0 | 7.0 | 0.00 | 0.06 | 0.06 | 94 | 1009.8 |
| 20260507011449 | 57 | 248 | 3.0 | 6.0 | 0.00 | 0.06 | 0.06 | 94 | 1009.8 |
| 20260507011411 | 57 | 250 | 3.0 | 5.0 | 0.00 | 0.06 | 0.06 | 94 | 1009.8 |
| 20260507010654 | 57 | 240 | 3.0 | 5.0 | 0.00 | 0.06 | 0.06 | 94 | 1009.8 |
| 20260507005934 | 57 | 244 | 3.0 | 6.0 | 0.00 | 0.06 | 0.06 | 94 | 1009.7 |
| 20260507005421 | 56 | 184 | 3.0 | 6.0 | 0.00 | 0.06 | 0.06 | 94 | 1009.9 |
| 20260507004921 | 56 | 190 | 3.0 | 6.0 | 0.00 | 0.06 | 0.06 | 94 | 1009.9 |
| 20260507004421 | 56 | 184 | 3.0 | 6.0 | 0.00 | 0.06 | 0.06 | 94 | 1009.8 |
| 20260507003922 | 56 | 240 | 3.0 | 6.0 | 0.00 | 0.06 | 0.06 | 94 | 1009.9 |
| 20260507003421 | 56 | 250 | 3.0 | 5.0 | 0.00 | 0.06 | 0.06 | 94 | 1009.8 |
| 20260507002919 | 56 | 161 | 2.0 | 4.0 | 0.00 | 0.06 | 0.06 | 94 | 1009.8 |
| 20260507002419 | 56 | 157 | 3.0 | 7.0 | 0.00 | 0.06 | 0.06 | 94 | 1009.7 |
| 20260507001910 | 56 | 200 | 3.0 | 7.0 | 0.00 | 0.06 | 0.06 | 94 | 1009.7 |
| 20260507001410 | 56 | 237 | 3.0 | 6.0 | 0.00 | 0.06 | 0.06 | 93 | 1009.7 |
| 20260507001133 | 56 | 179 | 3.0 | 6.0 | 0.00 | 0.06 | 0.06 | 93 | 1009.7 |
| 20260507000412 | 56 | 177 | 3.0 | 6.0 | 0.00 | 0.06 | 0.06 | 93 | 1009.7 |
| 20260506235905 | 57 | 215 | 3.0 | 6.0 | 0.00 | 0.06 | 0.06 | 93 | 1009.7 |
| 20260506235846 | 57 | 202 | 3.0 | 6.0 | 0.00 | 0.06 | 0.06 | 93 | 1009.7 |
| 20260506234905 | 57 | 223 | 3.0 | 6.0 | 0.00 | 0.06 | 0.06 | 93 | 1009.7 |
| 20260506234405 | 57 | 272 | 3.0 | 7.0 | 0.00 | 0.06 | 0.06 | 93 | 1009.6 |
| 20260506233905 | 57 | 203 | 3.0 | 7.0 | 0.00 | 0.06 | 0.06 | 93 | 1009.6 |
| 20260506233405 | 57 | 238 | 3.0 | 6.0 | 0.00 | 0.06 | 0.06 | 93 | 1009.5 |
| 20260506232904 | 57 | 252 | 3.0 | 8.0 | 0.01 | 0.06 | 0.06 | 93 | 1009.5 |
| 20260506232406 | 57 | 192 | 4.0 | 8.0 | 0.01 | 0.06 | 0.06 | 93 | 1009.5 |
| 20260506231905 | 57 | 209 | 4.0 | 8.0 | 0.00 | 0.06 | 0.06 | 93 | 1009.6 |
| 20260506231406 | 57 | 221 | 3.0 | 6.0 | 0.00 | 0.06 | 0.06 | 93 | 1009.6 |
| 20260506230906 | 57 | 194 | 3.0 | 6.0 | 0.00 | 0.06 | 0.06 | 93 | 1009.6 |
| 20260506230623 | 57 | 357 | 3.0 | 8.0 | 0.00 | 0.06 | 0.06 | 93 | 1009.6 |
| 20260506225900 | 57 | 229 | 3.0 | 8.0 | 0.00 | 0.06 | 0.06 | 93 | 1009.6 |
| 20260506225354 | 57 | 154 | 3.0 | 7.0 | 0.00 | 0.06 | 0.06 | 92 | 1009.7 |
| 20260506224851 | 57 | 219 | 3.0 | 5.0 | 0.00 | 0.06 | 0.06 | 92 | 1009.6 |
| 20260506224335 | 57 | 161 | 3.0 | 5.0 | 0.00 | 0.06 | 0.06 | 92 | 1009.5 |
| 20260506223835 | 57 | 201 | 3.0 | 5.0 | 0.00 | 0.06 | 0.06 | 92 | 1009.5 |
| 20260506223335 | 58 | 184 | 3.0 | 5.0 | 0.00 | 0.06 | 0.06 | 92 | 1009.4 |
| 20260506223102 | 58 | 175 | 3.0 | 5.0 | 0.00 | 0.05 | 0.05 | 92 | 1009.4 |
| 20260506222559 | 58 | 192 | 3.0 | 5.0 | 0.00 | 0.05 | 0.05 | 92 | 1009.5 |
| 20260506221836 | 58 | 188 | 3.0 | 5.0 | 0.00 | 0.05 | 0.05 | 92 | 1009.5 |
| 20260506221336 | 58 | 211 | 3.0 | 6.0 | 0.00 | 0.05 | 0.05 | 92 | 1009.5 |
| 20260506220830 | 58 | 142 | 3.0 | 6.0 | 0.00 | 0.05 | 0.05 | 91 | 1009.7 |
| 20260506220330 | 58 | 160 | 4.0 | 6.0 | 0.00 | 0.05 | 0.05 | 91 | 1009.8 |
| 20260506215830 | 58 | 173 | 3.0 | 6.0 | 0.00 | 0.05 | 0.05 | 91 | 1009.9 |
| 20260506215327 | 59 | 191 | 3.0 | 6.0 | 0.00 | 0.05 | 0.05 | 91 | 1009.8 |
| 20260506214825 | 59 | 275 | 2.0 | 6.0 | 0.00 | 0.05 | 0.05 | 90 | 1009.8 |
| 20260506214547 | 59 | 174 | 2.0 | 7.0 | 0.00 | 0.05 | 0.05 | 90 | 1010.0 |
| 20260506213818 | 59 | 171 | 3.0 | 7.0 | 0.00 | 0.05 | 0.05 | 90 | 1009.9 |
| 20260506213318 | 59 | 174 | 4.0 | 8.0 | 0.00 | 0.05 | 0.05 | 90 | 1009.9 |
| 20260506212813 | 60 | 228 | 4.0 | 9.0 | 0.00 | 0.05 | 0.05 | 90 | 1010.0 |
| 20260506212313 | 60 | 247 | 4.0 | 11.0 | 0.00 | 0.05 | 0.05 | 89 | 1010.0 |
| 20260506211813 | 60 | 221 | 4.0 | 11.0 | 0.00 | 0.05 | 0.05 | 89 | 1010.0 |
| 20260506211312 | 60 | 197 | 4.0 | 8.0 | 0.00 | 0.05 | 0.05 | 89 | 1010.1 |
| 20260506210812 | 60 | 198 | 3.0 | 8.0 | 0.00 | 0.05 | 0.05 | 90 | 1010.2 |
| 20260506210313 | 60 | 186 | 3.0 | 9.0 | 0.00 | 0.05 | 0.05 | 90 | 1010.2 |
| 20260506205813 | 60 | 286 | 4.0 | 9.0 | 0.00 | 0.05 | 0.05 | 90 | 1010.2 |
| 20260506205313 | 60 | 192 | 3.0 | 9.0 | 0.00 | 0.05 | 0.05 | 90 | 1010.3 |
| 20260506204813 | 60 | 168 | 3.0 | 10.0 | 0.00 | 0.05 | 0.05 | 90 | 1010.3 |
| 20260506204531 | 59 | 45 | 4.0 | 10.0 | 0.00 | 0.05 | 0.05 | 90 | 1010.3 |
| 20260506203813 | 59 | 273 | 4.0 | 9.0 | 0.00 | 0.05 | 0.05 | 90 | 1010.3 |
| 20260506203537 | 59 | 150 | 4.0 | 11.0 | 0.01 | 0.05 | 0.05 | 90 | 1010.4 |
| 20260506202810 | 59 | 257 | 5.0 | 11.0 | 0.02 | 0.05 | 0.05 | 90 | 1010.4 |
| 20260506202308 | 59 | 289 | 5.0 | 9.0 | 0.02 | 0.05 | 0.05 | 90 | 1010.4 |
| 20260506201808 | 59 | 206 | 5.0 | 9.0 | 0.03 | 0.05 | 0.05 | 90 | 1010.4 |
| 20260506201308 | 59 | 263 | 4.0 | 11.0 | 0.04 | 0.05 | 0.05 | 90 | 1010.4 |
| 20260506200808 | 59 | 179 | 4.0 | 11.0 | 0.04 | 0.05 | 0.05 | 90 | 1010.5 |
| 20260506200308 | 60 | 247 | 4.0 | 11.0 | 0.04 | 0.05 | 0.05 | 89 | 1010.6 |
| 20260506195808 | 60 | 231 | 4.0 | 7.0 | 0.04 | 0.05 | 0.05 | 89 | 1010.6 |
| 20260506195308 | 60 | 160 | 4.0 | 7.0 | 0.05 | 0.05 | 0.05 | 89 | 1010.5 |
| 20260506194808 | 60 | 173 | 4.0 | 8.0 | 0.05 | 0.05 | 0.05 | 89 | 1010.4 |
| 20260506194530 | 61 | 89 | 4.0 | 8.0 | 0.05 | 0.05 | 0.05 | 88 | 1010.5 |
| 20260506194031 | 61 | 198 | 4.0 | 8.0 | 0.05 | 0.05 | 0.05 | 87 | 1010.6 |
| 20260506193306 | 62 | 172 | 3.0 | 6.0 | 0.04 | 0.04 | 0.04 | 87 | 1010.6 |
| 20260506193027 | 62 | 214 | 3.0 | 8.0 | 0.03 | 0.03 | 0.03 | 86 | 1010.6 |
| 20260506192306 | 62 | 187 | 4.0 | 8.0 | 0.03 | 0.03 | 0.03 | 85 | 1010.6 |
| 20260506191806 | 62 | 203 | 4.0 | 8.0 | 0.02 | 0.02 | 0.02 | 84 | 1010.7 |
| 20260506191307 | 63 | 213 | 4.0 | 10.0 | 0.02 | 0.02 | 0.02 | 83 | 1010.6 |
| 20260506190807 | 63 | 162 | 4.0 | 10.0 | 0.01 | 0.01 | 0.01 | 82 | 1010.7 |
| 20260506190307 | 64 | 207 | 4.0 | 7.0 | 0.01 | 0.01 | 0.01 | 80 | 1010.8 |
| 20260506190031 | 64 | 319 | 4.0 | 9.0 | 0.01 | 0.01 | 0.01 | 79 | 1010.8 |
| 20260506185307 | 64 | 231 | 4.0 | 9.0 | 0.00 | 0.00 | 0.00 | 78 | 1010.9 |
| 20260506185029 | 64 | 178 | 4.0 | 9.0 | 0.00 | 0.00 | 0.00 | 77 | 1011.0 |
| 20260506184308 | 64 | 146 | 4.0 | 9.0 | 0.00 | 0.00 | 0.00 | 77 | 1011.0 |
| 20260506183808 | 65 | 205 | 4.0 | 9.0 | 0.00 | 0.00 | 0.00 | 76 | 1010.8 |
| 20260506183528 | 65 | 187 | 4.0 | 9.0 | 0.00 | 0.00 | 0.00 | 75 | 1010.9 |
| 20260506182809 | 66 | 311 | 4.0 | 9.0 | 0.00 | 0.00 | 0.00 | 74 | 1011.0 |
| 20260506182052 | 66 | 164 | 4.0 | 9.0 | 0.00 | 0.00 | 0.00 | 74 | 1011.1 |
| 20260506181551 | 66 | 177 | 4.0 | 10.0 | 0.00 | 0.00 | 0.00 | 73 | 1011.1 |
| 20260506181046 | 66 | 175 | 5.0 | 10.0 | 0.00 | 0.00 | 0.00 | 73 | 1011.1 |
| 20260506180546 | 66 | 204 | 4.0 | 10.0 | 0.00 | 0.00 | 0.00 | 72 | 1011.0 |
| 20260506180046 | 67 | 162 | 4.0 | 9.0 | 0.00 | 0.00 | 0.00 | 72 | 1011.1 |
| 20260506175546 | 67 | 102 | 4.0 | 9.0 | 0.00 | 0.00 | 0.00 | 71 | 1011.2 |
| 20260506175046 | 67 | 171 | 4.0 | 8.0 | 0.00 | 0.00 | 0.00 | 70 | 1011.3 |
| 20260506174546 | 67 | 211 | 4.0 | 9.0 | 0.00 | 0.00 | 0.00 | 70 | 1011.3 |
| 20260506174313 | 68 | 200 | 4.0 | 9.0 | 0.00 | 0.00 | 0.00 | 69 | 1011.3 |
| 20260506173546 | 68 | 184 | 4.0 | 7.0 | 0.00 | 0.00 | 0.00 | 69 | 1011.4 |
| 20260506173046 | 68 | 203 | 4.0 | 8.0 | 0.00 | 0.00 | 0.00 | 69 | 1011.5 |
| 20260506172542 | 68 | 159 | 4.0 | 8.0 | 0.00 | 0.00 | 0.00 | 68 | 1011.7 |
| 20260506172040 | 68 | 305 | 4.0 | 9.0 | 0.00 | 0.00 | 0.00 | 68 | 1011.7 |
| 20260506171541 | 68 | 10 | 5.0 | 10.0 | 0.00 | 0.00 | 0.00 | 68 | 1011.6 |
| 20260506171041 | 69 | 179 | 5.0 | 10.0 | 0.00 | 0.00 | 0.00 | 68 | 1011.5 |
| 20260506170541 | 69 | 237 | 4.0 | 9.0 | 0.00 | 0.00 | 0.00 | 67 | 1011.5 |
| 20260506170041 | 69 | 246 | 4.0 | 12.0 | 0.00 | 0.00 | 0.00 | 66 | 1011.4 |
| 20260506165541 | 69 | 334 | 4.0 | 12.0 | 0.00 | 0.00 | 0.00 | 68 | 1011.5 |
| 20260506165041 | 69 | 185 | 5.0 | 14.0 | 0.00 | 0.00 | 0.00 | 66 | 1011.6 |
| 20260506164541 | 69 | 113 | 5.0 | 14.0 | 0.00 | 0.00 | 0.00 | 66 | 1011.7 |
| 20260506164041 | 69 | 249 | 5.0 | 14.0 | 0.00 | 0.00 | 0.00 | 67 | 1011.8 |
| 20260506164022 | 69 | 160 | 6.0 | 12.0 | 0.00 | 0.00 | 0.00 | 66 | 1012.0 |
| 20260506163042 | 69 | 229 | 6.0 | 12.0 | 0.00 | 0.00 | 0.00 | 66 | 1012.0 |
| 20260506162541 | 69 | 169 | 6.0 | 14.0 | 0.00 | 0.00 | 0.00 | 66 | 1012.2 |
| 20260506162041 | 69 | 172 | 6.0 | 14.0 | 0.00 | 0.00 | 0.00 | 65 | 1012.2 |
| 20260506161541 | 69 | 180 | 6.0 | 10.0 | 0.00 | 0.00 | 0.00 | 66 | 1012.0 |
| 20260506161304 | 69 | 188 | 5.0 | 9.0 | 0.00 | 0.00 | 0.00 | 65 | 1012.2 |
| 20260506160541 | 70 | 175 | 4.0 | 8.0 | 0.00 | 0.00 | 0.00 | 66 | 1012.3 |
| 20260506160036 | 70 | 172 | 3.0 | 8.0 | 0.00 | 0.00 | 0.00 | 66 | 1012.3 |
| 20260506155536 | 70 | 144 | 4.0 | 10.0 | 0.00 | 0.00 | 0.00 | 65 | 1012.4 |
| 20260506155037 | 70 | 262 | 5.0 | 12.0 | 0.00 | 0.00 | 0.00 | 64 | 1012.5 |
| 20260506154536 | 70 | 268 | 4.0 | 12.0 | 0.00 | 0.00 | 0.00 | 64 | 1012.6 |
| 20260506154036 | 70 | 226 | 4.0 | 9.0 | 0.00 | 0.00 | 0.00 | 65 | 1012.5 |
| 20260506153536 | 70 | 135 | 5.0 | 9.0 | 0.00 | 0.00 | 0.00 | 65 | 1012.5 |
| 20260506153036 | 70 | 191 | 5.0 | 11.0 | 0.00 | 0.00 | 0.00 | 65 | 1012.6 |
| 20260506152802 | 70 | 208 | 4.0 | 11.0 | 0.00 | 0.00 | 0.00 | 66 | 1012.7 |
| 20260506152036 | 69 | 184 | 3.0 | 12.0 | 0.00 | 0.00 | 0.00 | 68 | 1012.7 |
| 20260506151536 | 69 | 168 | 4.0 | 12.0 | 0.00 | 0.00 | 0.00 | 68 | 1012.8 |
| 20260506151036 | 69 | 299 | 4.0 | 10.0 | 0.00 | 0.00 | 0.00 | 69 | 1012.7 |
| 20260506150536 | 69 | 164 | 4.0 | 8.0 | 0.00 | 0.00 | 0.00 | 68 | 1012.8 |
| 20260506150036 | 68 | 160 | 3.0 | 8.0 | 0.00 | 0.00 | 0.00 | 69 | 1012.9 |
| 20260506145536 | 68 | 175 | 4.0 | 10.0 | 0.00 | 0.00 | 0.00 | 70 | 1012.8 |
| 20260506145251 | 68 | 253 | 4.0 | 11.0 | 0.00 | 0.00 | 0.00 | 71 | 1012.8 |
| 20260506144756 | 68 | 280 | 4.0 | 11.0 | 0.00 | 0.00 | 0.00 | 70 | 1012.8 |
| 20260506144030 | 68 | 176 | 3.0 | 8.0 | 0.00 | 0.00 | 0.00 | 70 | 1012.8 |
| 20260506143531 | 68 | 278 | 4.0 | 8.0 | 0.00 | 0.00 | 0.00 | 69 | 1012.7 |
| 20260506143031 | 68 | 264 | 5.0 | 10.0 | 0.00 | 0.00 | 0.00 | 69 | 1012.7 |
| 20260506142531 | 68 | 170 | 5.0 | 12.0 | 0.00 | 0.00 | 0.00 | 69 | 1012.6 |
| 20260506142031 | 68 | 164 | 5.0 | 12.0 | 0.00 | 0.00 | 0.00 | 69 | 1012.6 |
| 20260506141531 | 68 | 24 | 5.0 | 12.0 | 0.00 | 0.00 | 0.00 | 68 | 1012.7 |
| 20260506141031 | 68 | 178 | 5.0 | 12.0 | 0.00 | 0.00 | 0.00 | 68 | 1012.8 |
| 20260506140531 | 68 | 250 | 5.0 | 12.0 | 0.00 | 0.00 | 0.00 | 68 | 1012.9 |
| 20260506140031 | 68 | 287 | 4.0 | 12.0 | 0.00 | 0.00 | 0.00 | 68 | 1012.7 |
| 20260506135531 | 67 | 204 | 4.0 | 9.0 | 0.00 | 0.00 | 0.00 | 70 | 1012.7 |
| 20260506135031 | 67 | 177 | 5.0 | 10.0 | 0.00 | 0.00 | 0.00 | 69 | 1012.6 |
| 20260506134531 | 67 | 185 | 6.0 | 10.0 | 0.00 | 0.00 | 0.00 | 70 | 1012.7 |
| 20260506134257 | 67 | 211 | 6.0 | 10.0 | 0.00 | 0.00 | 0.00 | 70 | 1012.9 |
| 20260506133525 | 67 | 182 | 5.0 | 9.0 | 0.00 | 0.00 | 0.00 | 71 | 1012.9 |
| 20260506133026 | 67 | 169 | 4.0 | 9.0 | 0.00 | 0.00 | 0.00 | 71 | 1013.1 |